Regional Weather Roundup
Issued by NWS New Orleans/Baton Rouge, LA

Home | Current Version | Previous Version | Graphics & Text | Print | Product List | Glossary On
Versions: 1 2 3 4 5 6 7 8 9 10 11 12 13 14 15 16 17 18 19 20 21 22 23 24 25 26 27 28 29 30 31 32 33 34 35 36 37 38 39 40 41 42 43 44 45 46 47 48 49 50
271
ASUS44 KLIX 291210
RWRLIX
NEW ORLEANS REGIONAL WEATHER ROUNDUP
NATIONAL WEATHER SERVICE NEW ORLEANS LA
600 AM CST THU JAN 29 2015

NOTE: "FAIR" INDICATES FEW OR NO CLOUDS BELOW 12,000 FEET WITH NO
      SIGNIFICANT WEATHER AND/OR OBSTRUCTIONS TO VISIBILITY.
      SKY/WX - SKY CONDITION AND SIGNIFICANT WEATHER.
      TMP - AIR TEMPERATURE.     DP    - DEWPOINT TEMPERATURE.
      RH  - RELATIVE HUMIDITY.   PRES  - PRESSURE.
      HI  - HEAT INDEX.          WCI   - WIND CHILL INDEX.

*  THESE STATIONS ARE NOT NWS OR FAA STATIONS AND ARE NOT UNDER
   NWS QUALITY CONTROL.

LAZ038-040-048-061>063-065>067-069-291300-
SOUTHEAST LOUISIANA

CITY           SKY/WX    TMP DP  RH WIND       PRES   REMARKS
N.O. AUDUBON   NOT AVBL
N.O. INTL ARPT PTCLDY    47  44  90 SE6       30.22F
6HR MIN TEMP:  45; 6HR MAX TEMP:  50;

N.O. LAKEFRONT CLEAR     51  47  86 SE6       30.23F
6HR MIN TEMP:  49; 6HR MAX TEMP:  53;

N.O. DOWNTOWN* NOT AVBL
SLIDELL        CLEAR     36  34  92 CALM      30.23F
6HR MIN TEMP:  36; 6HR MAX TEMP:  43;

BATON ROUGE    CLEAR     43  41  93 CALM      30.20R FOG
6HR MIN TEMP:  41; 6HR MAX TEMP:  46;

BOOTHVILLE     CLEAR     51  47  86 E6        30.25S
6HR MIN TEMP:  48; 6HR MAX TEMP:  53;

BELLE CHASSE   CLEAR     41  37  86 CALM      30.23F
6HR MIN TEMP:  40; 6HR MAX TEMP:  44;

BOGALUSA*        N/A     37  34  90 CALM      30.24S
6HR MIN TEMP:  36; 6HR MAX TEMP:  43;

GALLIANO*      FOG       39  39  99 MISG      30.24S VSB<1/4
6HR MIN TEMP:  39; 6HR MAX TEMP:  46;

NEW ROADS*       N/A     43  43  97 CALM      30.20S FOG
6HR MIN TEMP:  42; 6HR MAX TEMP:  48;

GONZALES*        N/A     47  47 100 CALM      30.19F FOG
6HR MIN TEMP:  44; 6HR MAX TEMP:  49;

HAMMOND*       CLEAR     41  37  87 CALM      30.23S
HOUMA*         PTCLDY    43  43 100 CALM      30.23S FOG
PORT FOURCHON* SUNNY     63  59  88 SE6       30.27R

$$

MSZ070-080>082-291300-
SOUTHERN MISSISSIPPI

CITY           SKY/WX    TMP DP  RH WIND       PRES   REMARKS
MCCOMB         CLEAR     46  43  89 CALM      30.21R FOG
6HR MIN TEMP:  37; 6HR MAX TEMP:  48;

GULFPORT       CLEAR     40  38  93 CALM      30.25R
6HR MIN TEMP:  39; 6HR MAX TEMP:  43;

BILOXI         CLEAR     45  45 100 CALM      30.25S FOG
PASCAGOULA     CLEAR     37  36  96 CALM      30.27R
6HR MIN TEMP:  36; 6HR MAX TEMP:  40;


$$

COASTAL OBSERVATIONS
LAKE AND NEARSHORE STATIONS

STATION/POSITION TIME  TEMP    WIND        PRES    WAVE
                       AIR SEA DIR/SP/G            HT/PER
                 (UTC) (F)     (DEG/KT/KT) (MB)    (FT/S)
PASCAGOULA       1200   54     110/  2/  4 1024.2
WAVELAND YACHT   1200   51     350/  1/  2 1023.2
GRAND ISLE       1200   61 62  150/  3/  6 1024.3
SOUTHWEST PASS   1200   52 45   80/  5/  5 1024.7
NEW CANAL        1200   49 54  170/  3/  5 1023.8
SHELL BEACH      1200   53 56  150/  3/  3 1024.0

OFFSHORE STATIONS

STATION/POSITION TIME  TEMP    WIND        PRES    WAVE
                       AIR SEA DIR/SP/G            HT/PER
                 (UTC) (F)     (DEG/KT/KT) (MB)    (FT/S)
64 S DAUPHIN ISL 1138   64 68  160/  8/ 12 1024.9    2/ 5

$$




USA.gov is the U.S. government's official web portal to all federal, state and local government web resources and services.